Showing default

GUANGCHUAN 02, 62112

Orbit data source: Space-Track

GUANGCHUAN 02, 62112 is a Chinese payload satellite in LEO that was launched on Wed, 27 Nov 2024 UTC via a ZHUQUE-2E launch vehicle from the Jiuquan Satellite Launch Center, China (JSC). Payloads include a variety of satellites, spacecraft, and rockets equipped with specific instruments for various scientific and technological missions. These include communications satellites like Starlink; space stations such as the ISS; scientific satellites like the Hubble; Earth observation satellites from companies like Planet Labs, Umbra, and HawkEye 360; GPS; miniature CubeSats for education and research; and military/defense satellites.

Loading next visibility...
GUANGCHUAN 02 details
Identifier
62112, 2024-221B
Orbit
LEO
Last TLE update7 hours ago
Origin
Flag of CNHONGQ? (CN / PRC)
ManufacturerCAST?
MissionOperational spacecraft
Bus & MotorHQ, Unknown motor
Mass~500 kg wet, ~500 kg dry
Launch date (UTC)
2024-11-27 (1 month ago)
Launch vehicle
ZHUQUE-2E
Launch site
Jiuquan Satellite Launch Center, China (JSC)
Object type
Payload
Rocket body
Debris
Shape & HBRUnknown
Radar Cross SectionLarge (>1 m²)

Expand to show TLE details & history

TLE from 7 hours ago
0 GUANGCHUAN 02
1 62112U 24221B   24361.14984946  .00026880  00000-0  68992-3 0  9995
2 62112  49.9626 272.5612 0049315 267.3318  92.1997 15.37832989  4474
Epoch: 2024-12-26T03:35Z
Definitive object data (Epoch: 2024-12-26T03:35:46.993Z)
Latitude-0.00001°
Longitude123.482°
Altitude454.53 km
Speed7.64 km/s
True Right ascension18h 10m 14s
True Declination0° 00' 00"
Sunlit
Object was in daylight at TLE epoch
Visualization TLE readout
Latitude46.17152°
Longitude-118.44287°
Altitude488.388 km
Speed7.609 km/s
Apparent Right ascension23h 49m 10s
Apparent Declination6° 02' 45"
Sunlit
Object is in full shadow
Visualization observer readout
Local Sidereal Time09:39:58
Azimuth319.406° NNW
Elevation-35.247°
Doppler factor1
Orbital elements
Apogee altitude486.991 km
Perigee altitude419.612 km
Semi-major axis6,831.438 km
Eccentricity0.0049315
Inclination49.9626°
RAAN272.5612°
Arg. of periapsis267.3318°
True anomaly92.76425°
Mean anomaly92.1997°
Eccentric anomaly92.48199°
Mean motion3.84393 °/min
BSTAR0.00068992
Orbital period93.65 mins
Loading maneuver chart data...
Loading historical data...
Loading historical data...
Loading historical data...
Loading historical data...
Loading historical data...
Loading historical data...
Loading historical data...
Other satellites on launch #221 in the year 2024 (2024-11-27 UTC)

GUANGCHUAN 02 Visibility forecast

Observer location: undefined°, undefined

Span
Click to sort rows by Start time (UTC) header in descending order
Start Az.
Max El. time (UTC)
Max El. Az.
Max El.
End time (UTC)
End Az.
6 mins2024-12-26 20:55:48.514Z210.06° SW2024-12-26 20:58:48.514Z124.89° SE35.747°2024-12-26 21:01:48.514Z67.075° ENE
4 mins2024-12-26 22:34:48.514Z293.24° NW2024-12-26 22:36:48.514Z352.646° N27.295°2024-12-26 22:38:48.514Z34.176° NE
4 mins2024-12-27 01:51:48.514Z337.381° NNW2024-12-27 01:53:48.514Z23.917° NE22.358°2024-12-27 01:55:48.514Z64.414° ENE
5 mins2024-12-27 03:29:48.514Z301.777° NW2024-12-27 03:31:48.514Z154.904° SSE44.478°2024-12-27 03:34:48.514Z127.673° SE
|